H1 CPF 2 NER 2022 1 29 9 029 01 glonass139 H2 1808601 9139 43687 2022 1 29 0 0 0 2022 2 1 23 45 0 900 1 1 0 0 0 1 H9 10 0 59608 0.00000 0 -11129217.369 22811736.619 -2497608.092 10 0 59608 900.00000 0 -11061288.979 22971962.471 705694.464 10 0 59608 1800.00000 0 -10828847.086 22764305.845 3895283.289 10 0 59608 2700.00000 0 -10484796.279 22173862.141 7009194.603 10 0 59608 3600.00000 0 -10084841.133 21198666.954 9986963.367 10 0 59608 4500.00000 0 -9684924.336 19849917.450 12770797.745 10 0 59608 5400.00000 0 -9338668.342 18151657.680 15306698.881 10 0 59608 6300.00000 0 -9094928.991 16139941.144 17545504.385 10 0 59608 7200.00000 0 -8995564.494 13861505.748 19443835.601 10 0 59608 8100.00000 0 -9073513.712 11372016.447 20964931.025 10 0 59608 9000.00000 0 -9351264.464 8733948.580 22079350.577 10 0 59608 9900.00000 0 -9839775.989 6014199.572 22765538.016 10 0 59608 10800.00000 0 -10537900.645 3281527.523 23010231.573 10 0 59608 11700.00000 0 -11432329.116 603922.017 22808715.656 10 0 59608 12600.00000 0 -12498061.575 -1953984.884 22164909.328 10 0 59608 13500.00000 0 -13699385.555 -4333361.413 21091290.123 10 0 59608 14400.00000 0 -14991320.232 -6483372.718 19608654.636 10 0 59608 15300.00000 0 -16321467.468 -8363041.412 17745720.161 10 0 59608 16200.00000 0 -17632193.018 -9942696.051 15538574.458 10 0 59608 17100.00000 0 -18863047.386 -11204948.400 13029983.505 10 0 59608 18000.00000 0 -19953325.579 -12145159.627 10268569.778 10 0 59608 18900.00000 0 -20844658.843 -12771376.793 7307876.161 10 0 59608 19800.00000 0 -21483529.797 -13103742.914 4205332.857 10 0 59608 20700.00000 0 -21823605.089 -13173405.830 1021146.924 10 0 59608 21600.00000 0 -21827787.047 -13020972.208 -2182864.325 10 0 59608 22500.00000 0 -21469897.211 -12694572.169 -5344473.460 10 0 59608 23400.00000 0 -20735919.904 -12247616.541 -8402252.998 10 0 59608 24300.00000 0 -19624752.316 -11736341.867 -11296771.583 10 0 59608 25200.00000 0 -18148428.266 -11217247.363 -13971752.595 10 0 59608 26100.00000 0 -16331804.956 -10744532.674 -16375172.118 10 0 59608 27000.00000 0 -14211724.629 -10367645.307 -18460274.546 10 0 59608 27900.00000 0 -11835685.065 -10129041.975 -20186485.771 10 0 59608 28800.00000 0 -9260073.630 -10062259.051 -21520205.914 10 0 59608 29700.00000 0 -6548037.805 -10190374.217 -22435466.096 10 0 59608 30600.00000 0 -3767080.279 -10524924.839 -22914436.469 10 0 59608 31500.00000 0 -986478.377 -11065329.330 -22947775.530 10 0 59608 32400.00000 0 1725365.278 -11798836.444 -22534813.970 10 0 59608 33300.00000 0 4303531.055 -12701005.266 -21683569.372 10 0 59608 34200.00000 0 6689041.380 -13736696.115 -20410591.338 10 0 59608 35100.00000 0 8831068.739 -14861531.105 -18740639.913 10 0 59608 36000.00000 0 10688801.225 -16023763.071 -16706203.309 10 0 59608 36900.00000 0 12232888.492 -17166474.301 -14346864.212 10 0 59608 37800.00000 0 13446408.666 -18230012.328 -11708526.898 10 0 59608 38700.00000 0 14325316.862 -19154559.932 -8842520.233 10 0 59608 39600.00000 0 14878357.753 -19882730.589 -5804594.312 10 0 59608 40500.00000 0 15126447.333 -20362079.441 -2653830.630 10 0 59608 41400.00000 0 15101551.445 -20547423.371 548512.475 10 0 59608 42300.00000 0 14845109.863 -20402871.829 3740195.895 10 0 59608 43200.00000 0 14406073.934 -19903482.366 6859213.450 10 0 59608 44100.00000 0 13838641.988 -19036470.783 9844999.020 10 0 59608 45000.00000 0 13199789.251 -17801924.773 12639603.129 10 0 59608 45900.00000 0 12546697.424 -16212990.892 15188815.959 10 0 59608 46800.00000 0 11934192.907 -14295526.912 17443215.102 10 0 59608 47700.00000 0 11412301.907 -12087234.027 19359118.035 10 0 59608 48600.00000 0 11024025.314 -9636304.962 20899421.538 10 0 59608 49500.00000 0 10803426.681 -6999643.991 22034312.661 10 0 59608 50400.00000 0 10774113.199 -4240732.510 22741838.357 10 0 59608 51300.00000 0 10948172.983 -1427228.087 23008323.748 10 0 59608 52200.00000 0 11325612.853 1371604.337 22828631.725 10 0 59608 53100.00000 0 11894319.921 4087523.629 22206259.441 10 0 59608 54000.00000 0 12630548.598 6655898.261 21153270.145 10 0 59608 54900.00000 0 13499912.826 9018140.878 19690061.628 10 0 59608 55800.00000 0 14458842.416 11123891.915 17844975.446 10 0 59608 56700.00000 0 15456443.026 12932862.846 15653753.865 10 0 59608 57600.00000 0 16436682.452 14416263.556 13158854.229 10 0 59608 58500.00000 0 17340812.066 15557755.267 10408633.229 10 0 59608 59400.00000 0 18109922.172 16353890.019 7456415.988 10 0 59608 60300.00000 0 18687524.070 16814018.954 4359467.283 10 0 59608 61200.00000 0 19022050.141 16959673.658 1177884.404 10 0 59608 62100.00000 0 19069166.281 16823446.926 -2026567.172 10 0 59608 63000.00000 0 18793798.608 16447420.359 -5191652.766 10 0 59608 63900.00000 0 18171788.037 15881205.300 -8255878.568 10 0 59608 64800.00000 0 17191101.846 15179680.081 -11159688.999 10 0 59608 65700.00000 0 15852549.793 14400519.390 -13846627.654 10 0 59608 66600.00000 0 14169973.256 13601620.497 -16264438.730 10 0 59608 67500.00000 0 12169897.951 12838535.415 -18366087.153 10 0 59608 68400.00000 0 9890663.355 12162017.839 -20110677.217 10 0 59608 69300.00000 0 7381064.057 11615788.815 -21464251.614 10 0 59608 70200.00000 0 4698558.674 11234615.822 -22400455.207 10 0 59608 71100.00000 0 1907120.089 11042786.587 -22901050.597 10 0 59608 72000.00000 0 -925184.079 11053042.335 -22956275.383 10 0 59608 72900.00000 0 -3728780.714 11266015.660 -22565034.214 10 0 59608 73800.00000 0 -6435242.945 11670196.964 -21734921.761 10 0 59608 74700.00000 0 -8979894.436 12242431.024 -20482076.100 10 0 59608 75600.00000 0 -11304258.332 12948922.886 -18830865.168 10 0 59608 76500.00000 0 -13358249.377 13746710.715 -16813412.178 10 0 59608 77400.00000 0 -15102018.277 14585543.395 -14468969.108 10 0 59608 78300.00000 0 -16507372.096 15410083.474 -11843150.352 10 0 59608 79200.00000 0 -17558712.117 16162342.130 -8987041.458 10 0 59608 80100.00000 0 -18253450.930 16784242.884 -5956200.578 10 0 59608 81000.00000 0 -18601892.456 17220205.209 -2809572.412 10 0 59608 81900.00000 0 -18626581.367 17419638.303 391663.685 10 0 59608 82800.00000 0 -18361150.667 17339239.050 3585288.316 10 0 59608 83700.00000 0 -17848717.514 16944996.598 6709255.456 10 0 59608 84600.00000 0 -17139896.282 16213818.453 9702900.531 10 0 59608 85500.00000 0 -16290513.872 15134709.175 12508119.093 10 0 59609 0.00000 0 -15359124.695 13709451.879 15070492.829 10 0 59609 900.00000 0 -14404430.191 11952762.774 17340342.449 10 0 59609 1800.00000 0 -13482713.169 9891914.007 19273683.917 10 0 59609 2700.00000 0 -12645393.203 7565837.685 20833074.787 10 0 59609 3600.00000 0 -11936806.761 5023749.826 21988331.553 10 0 59609 4500.00000 0 -11392304.226 2323350.329 22717106.462 10 0 59609 5400.00000 0 -11036743.018 -471326.897 23005313.363 10 0 59609 6300.00000 0 -10883439.281 -3292325.380 22847395.157 10 0 59609 7200.00000 0 -10933621.400 -6070340.107 22246428.259 10 0 59609 8100.00000 0 -11176407.786 -8737348.723 21214062.407 10 0 59609 9000.00000 0 -11589309.594 -11229192.139 19770296.931 10 0 59609 9900.00000 0 -12139237.322 -13487998.738 17943097.529 10 0 59609 10800.00000 0 -12783969.253 -15464352.797 15767860.375 10 0 59609 11700.00000 0 -13474020.510 -17119118.087 13286733.124 10 0 59609 12600.00000 0 -14154834.589 -18424841.545 10547805.159 10 0 59609 13500.00000 0 -14769205.640 -19366679.226 7604181.905 10 0 59609 14400.00000 0 -15259829.735 -19942806.343 4512960.397 10 0 59609 15300.00000 0 -15571877.693 -20164294.554 1334125.500 10 0 59609 16200.00000 0 -15655480.691 -20054461.935 -1870612.097 10 0 59609 17100.00000 0 -15468023.266 -19647723.105 -5039013.692 10 0 59609 18000.00000 0 -14976146.077 -18987988.062 -8109522.594 10 0 59609 18900.00000 0 -14157372.825 -18126677.358 -11022462.605 10 0 59609 19800.00000 0 -13001291.332 -17120437.487 -13721201.238 10 0 59609 20700.00000 0 -11510237.597 -16028653.071 -16153254.498 10 0 59609 21600.00000 0 -9699452.397 -14910861.056 -18271311.394 10 0 59609 22500.00000 0 -7596702.292 -13824176.217 -20034157.919 10 0 59609 23400.00000 0 -5241379.436 -12820836.756 -21407482.244 10 0 59609 24300.00000 0 -2683116.431 -11945973.654 -22364545.388 10 0 59609 25200.00000 0 20027.115 -11235697.837 -22886704.241 10 0 59609 26100.00000 0 2803731.695 -10715585.808 -22963776.756 10 0 59609 27000.00000 0 5599849.211 -10399627.491 -22594242.180 10 0 59609 27900.00000 0 8338997.987 -10289680.470 -21785272.370 10 0 59609 28800.00000 0 10953213.920 -10375453.502 -20552593.438 10 0 59609 29700.00000 0 13378547.874 -10635019.744 -18920180.289 10 0 59609 30600.00000 0 15557501.573 -11035837.778 -16919789.745 10 0 59609 31500.00000 0 17441200.745 -11536237.041 -14590341.238 10 0 59609 32400.00000 0 18991215.366 -12087304.471 -11977156.991 10 0 59609 33300.00000 0 20180951.510 -12635092.198 -9131076.525 10 0 59609 34200.00000 0 20996557.251 -13123052.333 -6107462.954 10 0 59609 35100.00000 0 21437305.618 -13494595.266 -2965120.788 10 0 59609 36000.00000 0 21515439.630 -13695662.524 234853.208 10 0 59609 36900.00000 0 21255487.157 -13677204.687 3430263.016 10 0 59609 37800.00000 0 20693075.781 -13397458.932 6559026.389 10 0 59609 38700.00000 0 19873298.892 -12823929.327 9560383.721 10 0 59609 39600.00000 0 18848703.027 -11934985.811 12376078.736 10 0 59609 40500.00000 0 17676982.287 -10721013.989 14951487.833 10 0 59609 41400.00000 0 16418477.582 -9185066.944 17236676.273 10 0 59609 42300.00000 0 15133586.364 -7342991.335 19187360.936 10 0 59609 43200.00000 0 13880191.722 -5223022.031 20765761.666 10 0 59609 44100.00000 0 12711218.497 -2864861.666 21941325.521 10 0 59609 45000.00000 0 11672418.305 -318282.924 22691310.787 10 0 59609 45900.00000 0 10800475.479 2358689.140 23001220.426 10 0 59609 46800.00000 0 10121512.274 5101940.172 22865077.396 10 0 59609 47700.00000 0 9650054.961 7843686.251 22285537.110 10 0 59609 48600.00000 0 9388503.233 10515051.178 21273835.230 10 0 59609 49500.00000 0 9327124.399 13048695.723 19849571.788 10 0 59609 50400.00000 0 9444572.178 15381390.941 18040335.533 10 0 59609 51300.00000 0 9708908.115 17456429.932 15881175.208 10 0 59609 52200.00000 0 10079082.699 19225778.848 13413927.205 10 0 59609 53100.00000 0 10506814.124 20651878.355 10686411.791 10 0 59609 54000.00000 0 10938785.815 21709021.115 7751512.660 10 0 59609 54900.00000 0 11319070.347 22384248.147 4666156.845 10 0 59609 55800.00000 0 11591677.548 22677726.763 1490214.343 10 0 59609 56700.00000 0 11703119.106 22602594.365 -1714661.552 10 0 59609 57600.00000 0 11604880.918 22184274.667 -4886230.783 10 0 59609 58500.00000 0 11255698.046 21459295.067 -7962876.461 10 0 59609 59400.00000 0 10623535.200 20473654.944 -10884804.388 10 0 59609 60300.00000 0 9687187.852 19280813.583 -13595208.478 10 0 59609 61200.00000 0 8437435.045 17939382.573 -16041378.861 10 0 59609 62100.00000 0 6877693.715 16510619.977 -18175730.761 10 0 59609 63000.00000 0 5024145.327 15055831.886 -19956733.809 10 0 59609 63900.00000 0 2905327.910 13633790.920 -21349723.403 10 0 59609 64800.00000 0 561208.989 12298280.305 -22327578.257 10 0 59609 65700.00000 0 -1958223.250 11095866.827 -22871250.882 10 0 59609 66600.00000 0 -4594792.897 10063996.221 -22970140.645 10 0 59609 67500.00000 0 -7284317.977 9229490.824 -22622302.138 10 0 59609 68400.00000 0 -9959050.738 8607512.344 -21834484.756 10 0 59609 69300.00000 0 -12550275.513 8201032.947 -20622002.574 10 0 59609 70200.00000 0 -14990956.407 8000836.412 -19008436.945 10 0 59609 71100.00000 0 -17218324.908 7986048.694 -17025177.349 10 0 59609 72000.00000 0 -19176299.681 8125174.895 -14710809.322 10 0 59609 72900.00000 0 -20817637.911 8377598.167 -12110361.265 10 0 59609 73800.00000 0 -22105728.593 8695476.459 -9274424.771 10 0 59609 74700.00000 0 -23015953.130 9025956.139 -6258165.853 10 0 59609 75600.00000 0 -23536556.868 9313607.989 -3120246.644 10 0 59609 76500.00000 0 -23668995.774 9502981.636 78320.959 10 0 59609 77400.00000 0 -23427744.620 9541169.457 3275366.682 10 0 59609 78300.00000 0 -22839575.842 9380270.674 6408774.498 10 0 59609 79200.00000 0 -21942340.569 8979650.701 9417692.295 10 0 59609 80100.00000 0 -20783304.207 8307899.642 12243714.536 10 0 59609 81000.00000 0 -19417107.638 7344406.789 14832014.711 10 0 59609 81900.00000 0 -17903440.494 6080484.251 17132405.645 10 0 59609 82800.00000 0 -16304524.791 4519992.077 19100307.346 10 0 59609 83700.00000 0 -14682514.662 2679438.144 20697604.232 10 0 59609 84600.00000 0 -13096920.962 587548.058 21893375.987 10 0 59609 85500.00000 0 -11602168.067 -1715677.573 22664488.717 10 0 59610 0.00000 0 -10245384.358 -4180379.819 22996035.972 10 0 59610 900.00000 0 -9064516.958 -6748675.411 22881621.987 10 0 59610 1800.00000 0 -8086850.222 -9356829.523 22323481.962 10 0 59610 2700.00000 0 -7327986.258 -11937682.765 21332437.988 10 0 59610 3600.00000 0 -6791330.925 -14423229.607 19927690.961 10 0 59610 4500.00000 0 -6468105.182 -16747243.682 18136452.506 10 0 59610 5400.00000 0 -6337880.808 -18847841.850 15993423.412 10 0 59610 6300.00000 0 -6369617.558 -20669881.401 13540127.937 10 0 59610 7200.00000 0 -6523158.066 -22167091.323 10824116.037 10 0 59610 8100.00000 0 -6751117.483 -23303849.307 7898048.157 10 0 59610 9000.00000 0 -7001088.285 -24056530.632 4818679.520 10 0 59610 9900.00000 0 -7218067.237 -24414372.506 1645763.171 10 0 59610 10800.00000 0 -7347001.853 -24379817.636 -1559107.332 10 0 59610 11700.00000 0 -7335348.434 -23968322.422 -4733693.186 10 0 59610 12600.00000 0 -7135532.963 -23207637.583 -7816320.150 10 0 59610 13500.00000 0 -6707209.976 -22136591.246 -10747079.099 10 0 59610 14400.00000 0 -6019222.852 -20803425.483 -13468993.593 10 0 59610 15300.00000 0 -5051181.452 -19263756.159 -15929131.224 10 0 59610 16200.00000 0 -3794589.051 -17578241.833 -18079636.763 10 0 59610 17100.00000 0 -2253469.487 -15810059.679 -19878666.680 10 0 59610 18000.00000 0 -444466.530 -14022294.534 -21291206.556 10 0 59610 18900.00000 0 1603590.339 -12275350.678 -22289755.408 10 0 59610 19800.00000 0 3850637.125 -10624494.870 -22854863.549 10 0 59610 20700.00000 0 6246805.001 -9117633.603 -22975513.460 10 0 59610 21600.00000 0 8734270.002 -7793417.469 -22649336.296 10 0 59610 22500.00000 0 11249446.523 -6679751.720 -21882659.721 10 0 59610 23400.00000 0 13725433.810 -5792774.998 -20690386.042 10 0 59610 24300.00000 0 16094614.002 -5136348.373 -19095702.849 10 0 59610 25200.00000 0 18291293.726 -4702075.368 -17129631.596 10 0 59610 26100.00000 0 20254279.144 -4469851.233 -14830422.749 10 0 59610 27000.00000 0 21929277.066 -4408917.322 -12242809.186 10 0 59610 27900.00000 0 23271021.893 -4479375.035 -9417132.355 10 0 59610 28800.00000 0 24245039.429 -4634094.369 -6408358.448 10 0 59610 29700.00000 0 24828974.014 -4820935.255 -3275004.069 10 0 59610 30600.00000 0 25013423.712 -4985186.664 -77992.758 10 0 59610 31500.00000 0 24802249.088 -5072119.231 3120534.649 10 0 59610 32400.00000 0 24212343.411 -5029542.398 6258432.095 10 0 59610 33300.00000 0 23272874.781 -4810257.047 9274758.639 10 0 59610 34200.00000 0 22024033.032 -4374299.181 12110962.959 10 0 59610 35100.00000 0 20515334.920 -3690879.309 14712018.812 10 0 59610 36000.00000 0 18803559.520 -2739935.180 17027489.423 10 0 59610 36900.00000 0 16950400.991 -1513232.100 19012500.356 10 0 59610 37800.00000 0 15019937.300 -14964.119 20628602.641 10 0 59610 38700.00000 0 13076020.698 1738169.637 21844510.207 10 0 59610 39600.00000 0 11179698.635 3717417.217 22636698.205 10 0 59610 40500.00000 0 9386772.029 5882936.566 22989851.602 10 0 59610 41400.00000 0 7745591.694 8185229.476 22897156.199 10 0 59610 42300.00000 0 6295183.693 10566988.049 22360427.068 10 0 59610 43200.00000 0 5063780.464 12965278.050 21390072.316 10 0 59610 44100.00000 0 4067817.712 15313969.616 20004892.903 10 0 59610 45000.00000 0 3311437.837 17546315.433 18231722.161 10 0 59610 45900.00000 0 2786519.634 19597570.297 16104911.434 10 0 59610 46800.00000 0 2473232.239 21407544.019 13665671.061 10 0 59610 47700.00000 0 2341089.560 22922982.018 10961278.639 10 0 59610 48600.00000 0 2350460.513 24099674.765 8044169.089 10 0 59610 49500.00000 0 2454471.253 24904208.222 4970923.347 10 0 59610 50400.00000 0 2601219.066 25315281.941 1801174.858 10 0 59610 51300.00000 0 2736204.244 25324539.428 -1403545.315 10 0 59610 52200.00000 0 2804876.859 24936875.537 -4581002.439 10 0 59610 53100.00000 0 2755190.303 24170207.561 -7669467.716 10 0 59610 54000.00000 0 2540052.877 23054719.139 -10608919.791 10 0 59610 54900.00000 0 2119572.852 21631608.316 -13342214.419 10 0 59610 55800.00000 0 1463000.995 19951392.017 -15816199.012 10 0 59610 56700.00000 0 550287.218 18071837.849 -17982750.027 10 0 59610 57600.00000 0 -626815.776 16055609.835 -19799712.693 10 0 59610 58500.00000 0 -2064149.838 13967726.748 -21231724.480 10 0 59610 59400.00000 0 -3745076.624 11872939.438 -22250906.186 10 0 59610 60300.00000 0 -5640935.462 9833136.850 -22837407.150 10 0 59610 61200.00000 0 -7712016.000 7904889.165 -22979793.915 10 0 59610 62100.00000 0 -9909006.218 6137230.555 -22675274.809 10 0 59610 63000.00000 0 -12174856.372 4569773.842 -21929755.987 10 0 59610 63900.00000 0 -14446981.765 3231235.477 -20757727.769 10 0 59610 64800.00000 0 -16659712.969 2138431.762 -19181983.328 10 0 59610 65700.00000 0 -18746891.604 1295787.534 -17233175.002 10 0 59610 66600.00000 0 -20644503.288 695376.875 -14949216.711 10 0 59610 67500.00000 0 -22293237.805 317492.971 -12374544.015 10 0 59610 68400.00000 0 -23640869.279 131721.853 -9559246.180 10 0 59610 69300.00000 0 -24644356.578 98473.483 -6558087.356 10 0 59610 70200.00000 0 -25271575.905 170904.221 -3429436.260 10 0 59610 71100.00000 0 -25502612.969 297148.099 -234125.616 10 0 59610 72000.00000 0 -25330560.709 422761.367 2965735.739 10 0 59610 72900.00000 0 -24761789.518 493275.684 6107974.356 10 0 59610 73800.00000 0 -23815679.159 456750.989 9131563.159 10 0 59610 74700.00000 0 -22523824.329 266219.221 11977807.761 10 0 59610 75600.00000 0 -20928747.922 -118085.045 14591484.871 10 0 59610 76500.00000 0 -19082176.595 -726801.729 16921910.667 10 0 59610 77400.00000 0 -17042951.415 -1579911.582 18923918.640 10 0 59610 78300.00000 0 -14874661.268 -2685656.639 20558728.516 10 0 59610 79200.00000 0 -12643097.869 -4039960.488 21794690.219 10 0 59610 80100.00000 0 -10413638.275 -5626373.087 22607889.301 10 0 59610 81000.00000 0 -8248663.326 -7416543.014 22982603.101 10 0 59610 81900.00000 0 -6205118.520 -9371198.178 22911599.620 10 0 59610 82800.00000 0 -4332317.745 -11441594.937 22396273.974 10 0 59610 83700.00000 0 -2670079.912 -13571376.278 21446620.179 10 0 59610 84600.00000 0 -1247274.664 -15698762.844 20081038.859 10 0 59610 85500.00000 0 -80836.526 -17758986.654 18325984.381 10 0 59611 0.00000 0 824712.602 -19686867.109 16215457.926 10 0 59611 900.00000 0 1477214.094 -21419423.919 13790354.363 10 0 59611 1800.00000 0 1896298.114 -22898416.059 11097677.713 10 0 59611 2700.00000 0 2112310.379 -24072704.736 8189635.755 10 0 59611 3600.00000 0 2164784.436 -24900339.094 5122633.343 10 0 59611 4500.00000 0 2100524.678 -25350278.296 1956182.345 10 0 59611 5400.00000 0 1971381.153 -25403677.316 -1248250.793 10 0 59611 6300.00000 0 1831810.490 -25054681.934 -4428437.673 10 0 59611 7200.00000 0 1736326.445 -24310698.884 -7522597.354 10 0 59611 8100.00000 0 1736948.486 -23192129.109 -10470598.798 10 0 59611 9000.00000 0 1880757.078 -21731574.572 -13215132.611 10 0 59611 9900.00000 0 2207659.967 -19972551.327 -15702828.741 10 0 59611 10800.00000 0 2748464.945 -17967762.293 -17885298.054 10 0 59611 11700.00000 0 3523341.710 -15777001.696 -19720077.169 10 0 59611 12600.00000 0 4540738.991 -13464778.689 -21171457.890 10 0 59611 13500.00000 0 5796803.939 -11097759.308 -22211184.981 10 0 59611 14400.00000 0 7275329.599 -8742133.488 -22819008.671 10 0 59611 15300.00000 0 8948233.982 -6461016.936 -22983081.060 10 0 59611 16200.00000 0 10776551.902 -4311996.053 -22700188.757 10 0 59611 17100.00000 0 12711899.096 -2344917.944 -21975817.142 10 0 59611 18000.00000 0 14698348.208 -600017.326 -20824044.909 10 0 59611 18900.00000 0 16674638.756 893542.148 -19267270.793 10 0 59611 19800.00000 0 18576629.091 2118652.062 -17335777.594 10 0 59611 20700.00000 0 20339887.840 3070728.676 -15067141.838 10 0 59611 21600.00000 0 21902316.349 3757649.237 -12505500.465 10 0 59611 22500.00000 0 23206692.135 4199159.141 -9700688.764 10 0 59611 23400.00000 0 24203026.386 4425776.332 -6707266.583 10 0 59611 24300.00000 0 24850636.417 4477240.594 -3583452.052 10 0 59611 25200.00000 0 25119845.854 4400574.675 -389984.012 10 0 59611 26100.00000 0 24993241.052 4247840.537 2811064.014 10 0 59611 27000.00000 0 24466431.045 4073686.910 5957494.647 10 0 59611 27900.00000 0 23548279.324 3932793.027 8988198.143 10 0 59611 28800.00000 0 22260598.077 3877317.562 11844340.426 10 0 59611 29700.00000 0 20637318.157 3954461.344 14470504.338 10 0 59611 30600.00000 0 18723169.999 4204247.323 16815761.954 10 0 59611 31500.00000 0 16571931.110 4657611.775 18834657.318 10 0 59611 32400.00000 0 14244313.595 5334887.397 20488081.148 10 0 59611 33300.00000 0 11805579.829 6244742.294 21744021.286 10 0 59611 34200.00000 0 9322985.440 7383619.590 22578175.227 10 0 59611 35100.00000 0 6863155.406 8735701.518 22974413.793 10 0 59611 36000.00000 0 4489501.467 10273399.934 22925087.848 10 0 59611 36900.00000 0 2259787.154 11958353.427 22431172.739 10 0 59611 37800.00000 0 223940.249 13742890.187 21502248.083 10 0 59611 38700.00000 0 -1577797.804 15571896.613 20156313.385 10 0 59611 39600.00000 0 -3116309.896 17385014.666 18419442.816 10 0 59611 40500.00000 0 -4374570.138 19119077.358 16325285.350 10 0 59611 41400.00000 0 -5348100.507 20710681.644 13914419.183 10 0 59611 42300.00000 0 -6044899.122 22098791.944 11233572.168 10 0 59611 43200.00000 0 -6484843.992 23227265.935 8334722.513 10 0 59611 44100.00000 0 -6698597.912 24047197.093 5274096.385 10 0 59611 45000.00000 0 -6726060.994 24518975.679 2111081.387 10 0 59611 45900.00000 0 -6614436.461 24613981.321 -1092923.429 10 0 59611 46800.00000 0 -6415991.663 24315835.507 -4275698.787 10 0 59611 47700.00000 0 -6185609.308 23621160.522 -7375414.350 10 0 59611 48600.00000 0 -5978232.901 22539812.045 -10331832.049 10 0 59611 49500.00000 0 -5846315.040 21094574.622 -13087479.844 10 0 59611 50400.00000 0 -5837377.210 19320331.903 -15588772.538 10 0 59611 51300.00000 0 -5991785.068 17262745.600 -17787057.493 10 0 59611 52200.00000 0 -6340834.225 14976497.762 -19639564.587 10 0 59611 53100.00000 0 -6905228.342 12523169.406 -21110241.586 10 0 59611 54000.00000 0 -7694014.850 9968843.694 -22170458.613 10 0 59611 54900.00000 0 -8704024.274 7381533.349 -22799567.918 10 0 59611 55800.00000 0 -9919837.856 4828539.375 -22985308.011 10 0 59611 56700.00000 0 -11314285.908 2373850.829 -22724044.315 10 0 59611 57600.00000 0 -12849456.967 75693.640 -22020841.595 10 0 59611 58500.00000 0 -14478176.189 -2015669.809 -20889366.672 10 0 59611 59400.00000 0 -16145891.618 -3859799.193 -19351623.167 10 0 59611 60300.00000 0 -17792889.701 -5427516.134 -17437523.251 10 0 59611 61200.00000 0 -19356747.266 -6701866.164 -15184304.581 10 0 59611 62100.00000 0 -20774917.129 -7678563.704 -12635803.661 10 0 59611 63000.00000 0 -21987338.634 -8365902.721 -9841599.725 10 0 59611 63900.00000 0 -22938963.114 -8784138.215 -6856046.016 10 0 59611 64800.00000 0 -23582087.818 -8964366.111 -3737207.600 10 0 59611 65700.00000 0 -23878399.776 -8946950.332 -545726.827 10 0 59611 66600.00000 0 -23800643.316 -8779564.911 2656360.829 10 0 59611 67500.00000 0 -23333840.906 -8514935.321 5806836.887 10 0 59611 68400.00000 0 -22476015.907 -8208375.716 8844511.830 10 0 59611 69300.00000 0 -21238386.910 -7915227.262 11710414.794 10 0 59611 70200.00000 0 -19645025.679 -7688306.630 14348937.590 10 0 59611 71100.00000 0 -17731993.167 -7575473.001 16708910.855 10 0 59611 72000.00000 0 -15545990.034 -7617416.520 18744591.605 10 0 59611 72900.00000 0 -13142578.082 -7845761.603 20416543.609 10 0 59611 73800.00000 0 -10584046.695 -8281564.898 21692394.272 10 0 59611 74700.00000 0 -7937012.907 -8934271.013 22547454.196 10 0 59611 75600.00000 0 -5269854.288 -9801169.869 22965188.389 10 0 59611 76500.00000 0 -2650080.461 -10867378.568 22937530.813 10 0 59611 77400.00000 0 -141751.339 -12106348.835 22465036.860 10 0 59611 78300.00000 0 2196952.015 -13480879.354 21556871.206 10 0 59611 79200.00000 0 4315904.506 -14944591.363 20230631.381 10 0 59611 80100.00000 0 6174872.967 -16443806.661 18512010.234 10 0 59611 81000.00000 0 7744936.010 -17919750.405 16434303.370 10 0 59611 81900.00000 0 9009429.903 -19310987.465 14037770.344 10 0 59611 82800.00000 0 9964382.001 -20555991.071 11368861.220 10 0 59611 83700.00000 0 10618414.591 -21595736.702 8479322.634 10 0 59611 84600.00000 0 10992123.873 -22376212.738 5425199.907 10 0 59611 85500.00000 0 11116960.702 -22850742.407 2265754.071 99